Date String (YYYY-MM-DD hh:mm:ss) UTC,Instrument flags,Ambient pressure (hPa),Sample flow (lpm),Bypass flow (lpm),Sample temperature (°C),Ambient temperature (°C),ASC tube jacket temperature (°C),LED temperature (°C),Box temperature (°C),Sample RH (%),Span deviation,Mass concentration (μg/m³),Mass concentration (μg/m³),Mass concentration (μg/m³)
DateTimeUTC,F1_M11,P_M11,Q1_M11,Q2_M11,T1_M11,T2_M11,T3_M11,T4_M11,T5_M11,U1_M11,ZSPAN_M11,X0_M11,X2_M11,X1_M11
2021-11-08 15:00:00,,0832.4,5.00,0.00,27.0,26.2,00.0,36.0,28.9,15.1,0000.0,0011.04,0003.89,0002.91
2021-11-08 15:01:00,,0832.4,4.99,0.00,27.1,26.3,00.0,36.0,28.9,15.1,0000.0,0010.60,0003.91,0002.89
2021-11-08 15:02:00,,0832.5,5.01,0.00,27.1,26.3,00.0,36.0,28.9,15.1,0000.0,0011.24,0003.94,0002.88
2021-11-08 15:03:00,,0832.5,4.98,0.00,27.1,26.3,00.0,36.0,28.9,15.2,0000.0,0011.86,0003.95,0002.86
2021-11-08 15:04:00,,0832.6,5.00,0.00,27.1,26.3,00.0,36.0,28.9,15.2,0000.0,0011.63,0003.93,0002.83
2021-11-08 15:05:00,,0832.7,5.00,0.00,27.1,26.3,00.0,36.0,28.9,15.2,0000.0,0011.06,0003.91,0002.81
2021-11-08 15:06:00,,0832.6,4.98,0.00,27.1,26.3,00.0,36.0,29.0,15.3,0000.0,0010.74,0003.89,0002.79
2021-11-08 15:07:00,,0832.6,5.01,0.00,27.1,26.3,00.0,36.1,29.0,15.2,0000.0,0010.71,0003.85,0002.79
2021-11-08 15:08:00,,0832.6,4.99,0.00,27.1,26.3,00.0,36.1,29.0,15.0,0000.0,0010.76,0003.84,0002.80
2021-11-08 15:09:00,,0832.6,5.01,0.00,27.2,26.3,00.0,36.1,29.0,15.1,0000.0,0011.32,0003.89,0002.80
2021-11-08 15:10:00,,0832.6,4.99,0.00,27.2,26.3,00.0,36.1,29.0,15.2,0000.0,0011.38,0003.90,0002.78
2021-11-08 15:11:00,,0832.7,5.01,0.00,27.2,26.3,00.0,36.1,29.0,15.1,0000.0,0011.25,0003.86,0002.76
2021-11-08 15:12:00,,0832.7,4.99,0.00,27.2,26.4,00.0,36.1,29.0,15.1,0000.0,0011.02,0003.81,0002.75
2021-11-08 15:13:00,,0832.7,5.00,0.00,27.2,26.4,00.0,36.1,29.0,15.1,0000.0,0010.48,0003.83,0002.75
2021-11-08 15:14:00,,0832.7,5.00,0.00,27.2,26.4,00.0,36.1,29.1,15.0,0000.0,0010.11,0003.84,0002.75
2021-11-08 15:15:00,,0832.6,5.01,0.00,27.2,26.4,00.0,36.2,29.1,15.0,0000.0,0010.06,0003.85,0002.76
2021-11-08 15:16:00,,0832.6,5.00,0.00,27.2,26.4,00.0,36.2,29.0,15.0,0000.0,0010.48,0003.87,0002.79
2021-11-08 15:17:00,,0832.6,4.98,0.00,27.2,26.4,00.0,36.2,29.1,15.2,0000.0,0010.20,0003.89,0002.80
2021-11-08 15:18:00,,0832.7,5.01,0.00,27.3,26.4,00.0,36.2,29.1,15.2,0000.0,0010.03,0003.92,0002.81
2021-11-08 15:19:00,,0832.7,4.98,0.00,27.3,26.4,00.0,36.2,29.1,15.2,0000.0,0009.79,0003.94,0002.84
2021-11-08 15:20:00,,0832.7,5.00,0.00,27.3,26.4,00.0,36.2,29.1,15.1,0000.0,0009.57,0003.94,0002.87
2021-11-08 15:21:00,,0832.7,5.01,0.00,27.3,26.4,00.0,36.2,29.1,15.2,0000.0,0010.12,0003.98,0002.90
2021-11-08 15:22:00,,0832.8,4.99,0.00,27.3,26.4,00.0,36.2,29.1,15.2,0000.0,0010.90,0003.98,0002.92
2021-11-08 15:23:00,,0832.8,5.00,0.00,27.3,26.4,00.0,36.2,29.1,15.2,0000.0,0011.61,0003.98,0002.95
2021-11-08 15:24:00,,0832.8,5.00,0.00,27.3,26.4,00.0,36.2,29.1,15.2,0000.0,0012.44,0003.98,0002.97
2021-11-08 15:25:00,,0832.8,5.01,0.00,27.3,26.4,00.0,36.2,29.1,15.2,0000.0,0012.45,0003.97,0002.99
2021-11-08 15:26:00,,0832.7,5.01,0.00,27.3,26.4,00.0,36.2,29.1,15.2,0000.0,0012.55,0003.95,0003.01
2021-11-08 15:27:00,,0832.7,4.99,0.00,27.3,26.4,00.0,36.3,29.1,15.2,0000.0,0012.20,0003.91,0003.00
2021-11-08 15:28:00,,0832.8,5.00,0.00,27.3,26.4,00.0,36.3,29.1,15.3,0000.0,0012.33,0003.89,0003.00
2021-11-08 15:29:00,,0832.7,5.02,0.00,27.3,26.4,00.0,36.3,29.2,15.3,0000.0,0012.39,0003.87,0003.04
2021-11-08 15:30:00,,0832.8,5.00,0.00,27.3,26.5,00.0,36.3,29.1,15.3,0000.0,0012.29,0003.88,0003.06
2021-11-08 15:31:00,,0832.8,4.99,0.00,27.3,26.5,00.0,36.3,29.2,15.4,0000.0,0012.06,0003.88,0003.07
2021-11-08 15:32:00,,0832.8,5.00,0.00,27.4,26.5,00.0,36.3,29.2,15.3,0000.0,0011.28,0003.80,0003.09
2021-11-08 15:33:00,,0832.8,5.00,0.00,27.4,26.5,00.0,36.3,29.2,15.3,0000.0,0010.62,0003.81,0003.12
2021-11-08 15:34:00,,0832.9,5.00,0.00,27.4,26.5,00.0,36.3,29.2,15.3,0000.0,0010.22,0003.86,0003.14
2021-11-08 15:35:00,,0832.8,4.99,0.00,27.4,26.5,00.0,36.3,29.2,15.4,0000.0,0009.43,0003.87,0003.18
2021-11-08 15:36:00,,0832.8,5.01,0.00,27.4,26.5,00.0,36.3,29.2,15.4,0000.0,0009.34,0003.91,0003.22
2021-11-08 15:37:00,,0832.8,4.99,0.00,27.4,26.5,00.0,36.3,29.2,15.4,0000.0,0009.05,0003.98,0003.27
2021-11-08 15:38:00,,0832.8,5.00,0.00,27.4,26.6,00.0,36.3,29.2,15.4,0000.0,0009.08,0004.03,0003.31
2021-11-08 15:39:00,,0832.8,4.99,0.00,27.4,26.6,00.0,36.4,29.2,15.5,0000.0,0009.32,0004.08,0003.35
2021-11-08 15:40:00,,0832.8,5.01,0.00,27.4,26.6,00.0,36.4,29.2,15.5,0000.0,0009.18,0004.11,0003.37
2021-11-08 15:41:00,,0832.8,5.00,0.00,27.4,26.6,00.0,36.4,29.3,15.4,0000.0,0009.18,0004.13,0003.40
2021-11-08 15:42:00,,0832.8,5.00,0.00,27.4,26.6,00.0,36.4,29.3,15.4,0000.0,0009.16,0004.11,0003.43
2021-11-08 15:43:00,,0832.8,5.00,0.00,27.4,26.6,00.0,36.4,29.2,15.4,0000.0,0009.27,0004.15,0003.46
2021-11-08 15:44:00,,0832.8,5.01,0.00,27.4,26.5,00.0,36.4,29.2,15.4,0000.0,0009.09,0004.17,0003.46
2021-11-08 15:45:00,,0832.9,5.00,0.00,27.4,26.6,00.0,36.4,29.2,15.4,0000.0,0008.82,0004.13,0003.47
2021-11-08 15:46:00,,0832.9,5.00,0.00,27.4,26.6,00.0,36.4,29.2,15.4,0000.0,0008.91,0004.14,0003.46
2021-11-08 15:47:00,,0832.8,5.00,0.00,27.4,26.6,00.0,36.4,29.2,15.4,0000.0,0009.75,0004.15,0003.46
2021-11-08 15:48:00,,0832.8,5.01,0.00,27.5,26.6,00.0,36.4,29.3,15.5,0000.0,0009.86,0004.14,0003.44
2021-11-08 15:49:00,,0832.8,5.00,0.00,27.5,26.6,00.0,36.4,29.3,15.4,0000.0,0009.85,0004.11,0003.43
2021-11-08 15:50:00,,0832.8,4.99,0.00,27.5,26.6,00.0,36.4,29.3,15.3,0000.0,0009.37,0004.09,0003.43
2021-11-08 15:51:00,,0832.8,5.00,0.00,27.5,26.6,00.0,36.4,29.3,15.4,0000.0,0010.12,0004.07,0003.41
2021-11-08 15:52:00,,0832.8,5.00,0.00,27.5,26.6,00.0,36.5,29.3,15.2,0000.0,0010.14,0004.07,0003.39
2021-11-08 15:53:00,,0832.8,5.01,0.00,27.5,26.6,00.0,36.5,29.3,15.2,0000.0,0010.18,0004.07,0003.38
2021-11-08 15:54:00,,0832.8,4.99,0.00,27.5,26.6,00.0,36.5,29.3,15.2,0000.0,0010.78,0004.06,0003.37
2021-11-08 15:55:00,,0832.7,5.00,0.00,27.5,26.6,00.0,36.5,29.3,15.2,0000.0,0010.67,0004.06,0003.37
2021-11-08 15:56:00,,0832.8,4.99,0.00,27.5,26.6,00.0,36.5,29.3,15.2,0000.0,0010.71,0004.07,0003.37
2021-11-08 15:57:00,,0832.8,5.00,0.00,27.5,26.6,00.0,36.5,29.3,15.2,0000.0,0010.66,0004.06,0003.35
2021-11-08 15:58:00,,0832.8,5.01,0.00,27.5,26.6,00.0,36.5,29.3,15.2,0000.0,0009.59,0004.03,0003.34
2021-11-08 15:59:00,,0832.8,4.99,0.00,27.5,26.6,00.0,36.5,29.3,15.2,0000.0,0009.99,0004.01,0003.33
